Pagina principale
METAR-TAF:

METAR-TAF

Aeroporti :

Aeroporto di Albenga

Albenga, Italia

latitudine: 44-03N, longitudine: 008-07E, altezza: 45 m

Osservazione

Il bollettino è stato emesso 37 minuti fa, alle 06:00 UTC
Vento 10 kt da nord/nord-est
Temperature 18°C
Umidità 39%
Pressione 1026 hPa
Visibilità 10 km o più
nessuna nube inferiore a 1500 m e nessun cumulonembo

METAR: LIMG 200600Z 02010KT CAVOK 18/04 Q1026

Ora: 08:37 (06:37 UTC)


TAF: mancante

Osservazioni e previsioni meteorologiche di più di 4000 aeroporti (messaggi METAR e TAF).

Le stazioni disponibili sono rappresentate dai dischi gialli e rossi sulla carta.

Puntare il mouse per vedere il nome della stazione.

Clicca sopra per visualizzare le osservazioni e previsioni meteorologiche.

Per cambiare la mappa : fare clic sui pulsanti verdi con una croce nera per ingrandire, il pulsante verde con un trattino per diminuire, o sulla freccia verde per le mappe adiacenti.


METAR-TAF: